User: anonymous   Login
Location: ??????????
(48.5701°N, 37.7703°E)
Time: 00:46:16
(UTC+00:00)
Language:

H-2A R/B - Orbit

View from above orbital plane
View from above orbital plane
View from above satellite
View from above satellite

Ground track
Ground track

The orbit data is extracted from the following two-line orbital elements,

1 38341U 12025E   20271.72974304  .00000233  00000-0  34994-4 0  9998
2 38341  98.5127  73.4447 0054279 263.2251  96.2783 14.84074880452617
Epoch (UTC): 27 September 2020 17:30:49
Eccentricity: 0.0054279
inclination: 98.5127°
perigee height: 578 km
apogee height: 654 km
right ascension of ascending node: 73.4447°
argument of perigee: 263.2251°
revolutions per day: 14.84074880
mean anomaly at epoch: 96.2783°
orbit number at epoch: 45261

The dashed part of the orbit path shows where the satellite is in the earth's shadow,  

DLR